Powrót do katalogu

CZ-6A DEB

AktywnyPO
NORAD 54944·DEBRIS·🇨🇳 China

Wystrzelony Nov 11, 2022 z Taiyuan Satellite Launch Center

Loading…

Następne Przeloty (najbliższe 24 godziny)

TLE

ŚwieżeSource: Space-Track

Epoka: Sep 13, 2026, 23:08 UTC

1 54944U 22151SH  26256.96449240  .00000113  00000-0  21770-3 0  9991
2 54944  99.0347  83.7094 0509265 323.2863  33.4350 13.12971568183424

Śledź CZ-6A DEB w czasie rzeczywistym z AllMySat

Download on the App Store